Tracking 17855 objects as of 27-September-2016
HD Live streaming from Space Station
objects crossing your sky now

BEESAT

Track BEESAT now!
10-day predictions
BEESAT is classified as:


NORAD ID: 35933
Int'l Code: 2009-051C
Perigee: 709.1 km
Apogee: 717.3 km
Inclination: 98.5 °
Period: 98.9 minutes
Semi major axis: 7084 km
RCS: 0.033 m2 (small)
Launch date: September 23, 2009
Source: Germany (GER)
Launch site: SIRHARIKOTA (SRI)
Uplink (MHz):
Downlink (MHz): 436.000
Beacon (MHz): 436.000
Mode: 9600/4800bps GMSK
Call sign: DP0BEE
Status: Active


BEESAT is a a cubesat satellite built by student teams to test new attitude control systems.
Your satellite tracking list
Your tracking list is empty





NASA's NSSDC Master Catalog

Two Line Element Set (TLE):
1 35933U 09051C   16270.31439762  .00000252  00000-0  68141-4 0  9992
2 35933  98.4644  39.8355 0005808   8.1093 352.0197 14.56013764372023
Source of the keplerian elements: Caltech

N2YO: 1162